Time,TemperatureF,DewpointF,PressureIn,WindDirection,WindDirectionDegrees,WindSpeedMPH,WindSpeedGustMPH,Humidity,HourlyPrecipIn,Conditions,Clouds,dailyrainin,SoftwareType,DateUTC
2013-08-13 00:00:00,49.5,30.6,29.38,WSW,248,0.0,0.0,48,0.00,CLR,OVC,0.00,WeatherDisplay:10.37,2013-08-12 14:00:00,
2013-08-13 00:05:00,49.3,30.9,29.38,NW,315,0.0,0.0,49,0.00,CLR,OVC,0.00,WeatherDisplay:10.37,2013-08-12 14:05:00,
2013-08-13 00:10:00,49.1,31.2,29.38,South,180,2.3,2.3,50,0.00,CLR,OVC,0.00,WeatherDisplay:10.37,2013-08-12 14:10:00,
2013-08-13 00:15:00,48.6,31.2,29.38,South,180,0.0,0.0,51,0.00,CLR,OVC,0.00,WeatherDisplay:10.37,2013-08-12 14:15:00,
2013-08-13 00:20:00,48.6,31.2,29.38,SE,135,0.0,0.0,51,0.00,CLR,OVC,0.00,WeatherDisplay:10.37,2013-08-12 14:20:00,
2013-08-13 00:25:00,48.4,31.1,29.38,SE,135,0.0,0.0,51,0.00,CLR,OVC,0.00,WeatherDisplay:10.37,2013-08-12 14:25:00,
2013-08-13 00:30:00,48.0,30.7,29.41,SSW,202,0.0,0.0,51,0.00,CLR,OVC,0.00,WeatherDisplay:10.37,2013-08-12 14:30:00,
2013-08-13 00:35:00,47.8,31.0,29.41,SW,225,0.0,0.0,52,0.00,CLR,OVC,0.00,WeatherDisplay:10.37,2013-08-12 14:35:00,
2013-08-13 00:40:00,47.8,30.6,29.41,West,270,0.0,0.0,51,0.00,CLR,OVC,0.00,WeatherDisplay:10.37,2013-08-12 14:40:00,
2013-08-13 00:45:00,47.7,30.9,29.41,WSW,248,0.0,0.0,52,0.00,CLR,OVC,0.00,WeatherDisplay:10.37,2013-08-12 14:45:00,
2013-08-13 00:50:00,47.5,30.7,29.41,West,270,0.0,0.0,52,0.00,CLR,OVC,0.00,WeatherDisplay:10.37,2013-08-12 14:50:00,
2013-08-13 00:55:00,47.3,30.5,29.41,South,180,0.0,0.0,52,0.00,CLR,OVC,0.00,WeatherDisplay:10.37,2013-08-12 14:55:00,
2013-08-13 01:00:00,47.1,30.4,29.41,SW,225,0.0,0.0,52,0.00,CLR,OVC,0.00,WeatherDisplay:10.37,2013-08-12 15:00:00,
2013-08-13 01:05:00,46.9,30.2,29.41,SW,225,0.0,0.0,52,0.00,CLR,OVC,0.00,WeatherDisplay:10.37,2013-08-12 15:05:00,
2013-08-13 01:10:00,46.9,30.7,29.41,WNW,292,0.0,0.0,53,0.00,CLR,OVC,0.00,WeatherDisplay:10.37,2013-08-12 15:10:00,
2013-08-13 01:15:00,46.6,30.3,29.41,WSW,248,0.0,0.0,53,0.00,CLR,OVC,0.00,WeatherDisplay:10.37,2013-08-12 15:15:00,
2013-08-13 01:20:00,46.4,30.6,29.41,West,270,0.0,0.0,54,0.00,CLR,OVC,0.00,WeatherDisplay:10.37,2013-08-12 15:20:00,
2013-08-13 01:26:00,46.2,30.5,29.41,South,180,0.0,0.0,54,0.00,CLR,OVC,0.00,WeatherDisplay:10.37,2013-08-12 15:26:00,
2013-08-13 01:31:00,46.2,30.5,29.44,SW,225,0.0,0.0,54,0.00,CLR,OVC,0.00,WeatherDisplay:10.37,2013-08-12 15:31:00,
2013-08-13 01:36:00,46.0,30.3,29.44,WSW,248,0.0,0.0,54,0.00,CLR,OVC,0.00,WeatherDisplay:10.37,2013-08-12 15:36:00,
2013-08-13 01:41:00,45.9,30.1,29.44,West,270,0.0,0.0,54,0.00,CLR,OVC,0.00,WeatherDisplay:10.37,2013-08-12 15:41:00,
2013-08-13 01:46:00,45.7,30.0,29.44,SE,135,0.0,0.0,54,0.00,CLR,OVC,0.00,WeatherDisplay:10.37,2013-08-12 15:46:00,
2013-08-13 01:51:00,45.5,29.8,29.44,WNW,292,0.0,0.0,54,0.00,CLR,OVC,0.00,WeatherDisplay:10.37,2013-08-12 15:51:00,
2013-08-13 01:56:00,45.3,30.1,29.44,SE,135,0.0,0.0,55,0.00,CLR,OVC,0.00,WeatherDisplay:10.37,2013-08-12 15:56:00,
2013-08-13 02:01:00,45.1,30.4,29.44,NE,45,0.0,0.0,56,0.00,CLR,OVC,0.00,WeatherDisplay:10.37,2013-08-12 16:01:00,
2013-08-13 02:06:00,45.0,30.2,29.44,South,180,0.0,0.0,56,0.00,CLR,OVC,0.00,WeatherDisplay:10.37,2013-08-12 16:06:00,
2013-08-13 02:11:00,44.6,29.9,29.44,SSW,202,0.0,0.0,56,0.00,CLR,OVC,0.00,WeatherDisplay:10.37,2013-08-12 16:11:00,
2013-08-13 02:16:00,44.6,29.9,29.44,SSE,158,0.0,0.0,56,0.00,CLR,OVC,0.00,WeatherDisplay:10.37,2013-08-12 16:16:00,
2013-08-13 02:21:00,44.4,29.7,29.44,West,270,0.0,0.0,56,0.00,CLR,OVC,0.00,WeatherDisplay:10.37,2013-08-12 16:21:00,
2013-08-13 02:26:00,44.2,29.5,29.44,WNW,292,0.0,0.0,56,0.00,CLR,OVC,0.00,WeatherDisplay:10.37,2013-08-12 16:26:00,
2013-08-13 02:31:00,44.1,29.8,29.44,WSW,248,0.0,0.0,57,0.00,CLR,OVC,0.00,WeatherDisplay:10.37,2013-08-12 16:31:00,
2013-08-13 02:36:00,43.9,29.6,29.44,SSE,158,0.0,0.0,57,0.00,CLR,OVC,0.00,WeatherDisplay:10.37,2013-08-12 16:36:00,
2013-08-13 02:41:00,43.7,29.5,29.44,NW,315,2.3,0.0,57,0.00,CLR,OVC,0.00,WeatherDisplay:10.37,2013-08-12 16:41:00,
2013-08-13 02:46:00,43.5,29.7,29.44,SE,135,0.0,0.0,58,0.00,CLR,OVC,0.00,WeatherDisplay:10.37,2013-08-12 16:46:00,
2013-08-13 02:51:00,43.3,29.5,29.44,SE,135,0.0,0.0,58,0.00,CLR,OVC,0.00,WeatherDisplay:10.37,2013-08-12 16:51:00,
2013-08-13 02:56:00,43.2,29.8,29.44,East,90,0.0,0.0,59,0.00,CLR,OVC,0.00,WeatherDisplay:10.37,2013-08-12 16:56:00,
2013-08-13 03:01:00,43.0,29.6,29.44,East,90,0.0,0.0,59,0.00,CLR,OVC,0.00,WeatherDisplay:10.37,2013-08-12 17:01:00,
2013-08-13 03:06:00,43.0,29.6,29.44,SE,135,0.0,0.0,59,0.00,CLR,OVC,0.00,WeatherDisplay:10.37,2013-08-12 17:06:00,
2013-08-13 03:11:00,42.8,29.5,29.44,SSE,158,1.2,0.0,59,0.00,CLR,OVC,0.00,WeatherDisplay:10.37,2013-08-12 17:11:00,
2013-08-13 03:16:00,42.6,29.7,29.44,SE,135,0.0,0.0,60,0.00,CLR,OVC,0.00,WeatherDisplay:10.37,2013-08-12 17:16:00,
2013-08-13 03:21:00,42.4,29.5,29.44,West,270,0.0,0.0,60,0.00,CLR,OVC,0.00,WeatherDisplay:10.37,2013-08-12 17:21:00,
2013-08-13 03:26:00,42.4,29.5,29.44,West,270,0.0,0.0,60,0.00,CLR,OVC,0.00,WeatherDisplay:10.37,2013-08-12 17:26:00,
2013-08-13 03:31:00,42.3,29.8,29.44,East,90,0.0,0.0,61,0.00,CLR,OVC,0.00,WeatherDisplay:10.37,2013-08-12 17:31:00,
2013-08-13 03:36:00,42.3,29.8,29.44,East,90,0.0,0.0,61,0.00,CLR,OVC,0.00,WeatherDisplay:10.37,2013-08-12 17:36:00,
2013-08-13 03:41:00,42.1,29.6,29.44,SE,135,0.0,0.0,61,0.00,CLR,OVC,0.00,WeatherDisplay:10.37,2013-08-12 17:41:00,
2013-08-13 03:46:00,41.9,29.4,29.44,SE,135,0.0,0.0,61,0.00,CLR,OVC,0.00,WeatherDisplay:10.37,2013-08-12 17:46:00,
2013-08-13 03:51:00,41.7,29.6,29.44,SSW,202,0.0,0.0,62,0.00,CLR,OVC,0.00,WeatherDisplay:10.37,2013-08-12 17:51:00,
2013-08-13 03:56:00,41.7,29.6,29.44,West,270,0.0,0.0,62,0.00,CLR,OVC,0.00,WeatherDisplay:10.37,2013-08-12 17:56:00,
2013-08-13 04:01:00,41.7,29.6,29.44,WSW,248,2.4,0.0,62,0.00,CLR,OVC,0.00,WeatherDisplay:10.37,2013-08-12 18:01:00,
2013-08-13 04:06:00,41.5,29.5,29.44,SW,225,0.0,0.0,62,0.00,CLR,OVC,0.00,WeatherDisplay:10.37,2013-08-12 18:06:00,
2013-08-13 04:11:00,41.5,29.5,29.44,WSW,248,2.3,2.4,62,0.00,CLR,OVC,0.00,WeatherDisplay:10.37,2013-08-12 18:11:00,
2013-08-13 04:16:00,41.5,29.5,29.44,SSW,202,0.0,0.0,62,0.00,CLR,OVC,0.00,WeatherDisplay:10.37,2013-08-12 18:16:00,
2013-08-13 04:21:00,41.4,29.3,29.44,SSW,202,0.0,0.0,62,0.00,CLR,OVC,0.00,WeatherDisplay:10.37,2013-08-12 18:21:00,
2013-08-13 04:26:00,41.4,29.7,29.44,WNW,292,0.0,0.0,63,0.00,CLR,OVC,0.00,WeatherDisplay:10.37,2013-08-12 18:26:00,
2013-08-13 04:31:00,41.4,29.7,29.44,NW,315,0.0,0.0,63,0.00,CLR,OVC,0.00,WeatherDisplay:10.37,2013-08-12 18:31:00,
2013-08-13 04:36:00,41.4,29.7,29.44,SW,225,0.0,0.0,63,0.00,CLR,OVC,0.00,WeatherDisplay:10.37,2013-08-12 18:36:00,
2013-08-13 04:41:00,41.2,29.1,29.44,SSW,202,0.0,0.0,62,0.00,CLR,OVC,0.00,WeatherDisplay:10.37,2013-08-12 18:41:00,
2013-08-13 04:46:00,41.2,29.1,29.44,SW,225,0.0,0.0,62,0.00,CLR,OVC,0.00,WeatherDisplay:10.37,2013-08-12 18:46:00,
2013-08-13 04:51:00,41.2,29.5,29.44,NNE,22,0.0,0.0,63,0.00,CLR,OVC,0.00,WeatherDisplay:10.37,2013-08-12 18:51:00,
2013-08-13 04:56:00,41.0,29.4,29.44,SSW,202,0.0,0.0,63,0.00,CLR,OVC,0.00,WeatherDisplay:10.37,2013-08-12 18:56:00,
2013-08-13 05:01:00,40.8,29.2,29.44,West,270,0.0,0.0,63,0.00,CLR,OVC,0.00,WeatherDisplay:10.37,2013-08-12 19:01:00,
2013-08-13 05:06:00,40.8,29.2,29.44,West,270,0.0,0.0,63,0.00,CLR,OVC,0.00,WeatherDisplay:10.37,2013-08-12 19:06:00,
2013-08-13 05:11:00,40.8,29.6,29.44,South,180,0.0,0.0,64,0.00,CLR,OVC,0.00,WeatherDisplay:10.37,2013-08-12 19:11:00,
2013-08-13 05:16:00,40.6,29.0,29.47,SW,225,0.0,0.0,63,0.00,CLR,OVC,0.00,WeatherDisplay:10.37,2013-08-12 19:16:00,
2013-08-13 05:21:00,40.6,29.4,29.47,WSW,248,0.0,0.0,64,0.00,CLR,OVC,0.00,WeatherDisplay:10.37,2013-08-12 19:21:00,
2013-08-13 05:26:00,40.6,29.4,29.47,WSW,248,0.0,0.0,64,0.00,CLR,OVC,0.00,WeatherDisplay:10.37,2013-08-12 19:26:00,
2013-08-13 05:31:00,40.6,29.4,29.47,SSE,158,0.0,0.0,64,0.00,CLR,OVC,0.00,WeatherDisplay:10.37,2013-08-12 19:31:00,
2013-08-13 05:36:00,40.6,29.4,29.47,West,270,0.0,0.0,64,0.00,CLR,OVC,0.00,WeatherDisplay:10.37,2013-08-12 19:36:00,
2013-08-13 05:41:00,40.5,29.2,29.47,SW,225,0.0,0.0,64,0.00,CLR,OVC,0.00,WeatherDisplay:10.37,2013-08-12 19:41:00,
2013-08-13 05:46:00,40.5,29.2,29.47,SW,225,0.0,0.0,64,0.00,CLR,OVC,0.00,WeatherDisplay:10.37,2013-08-12 19:46:00,
2013-08-13 05:51:00,40.5,29.2,29.47,SSW,202,0.0,0.0,64,0.00,CLR,OVC,0.00,WeatherDisplay:10.37,2013-08-12 19:51:00,
2013-08-13 05:56:00,40.5,29.6,29.47,SW,225,0.0,0.0,65,0.00,CLR,OVC,0.00,WeatherDisplay:10.37,2013-08-12 19:56:00,
2013-08-13 06:01:00,40.3,29.1,29.50,SSW,202,0.0,0.0,64,0.00,CLR,OVC,0.00,WeatherDisplay:10.37,2013-08-12 20:01:00,
2013-08-13 06:06:00,40.3,29.4,29.50,West,270,0.0,0.0,65,0.00,CLR,OVC,0.00,WeatherDisplay:10.37,2013-08-12 20:06:00,
2013-08-13 06:11:00,40.1,29.3,29.50,East,90,0.0,0.0,65,0.00,CLR,OVC,0.00,WeatherDisplay:10.37,2013-08-12 20:11:00,
2013-08-13 06:16:00,40.1,29.3,29.50,NE,45,0.0,0.0,65,0.00,CLR,OVC,0.00,WeatherDisplay:10.37,2013-08-12 20:16:00,
2013-08-13 06:21:00,39.9,29.5,29.50,SSE,158,0.0,0.0,66,0.00,CLR,OVC,0.00,WeatherDisplay:10.37,2013-08-12 20:21:00,
2013-08-13 06:26:00,39.7,28.9,29.50,SSW,202,2.3,2.3,65,0.00,CLR,OVC,0.00,WeatherDisplay:10.37,2013-08-12 20:26:00,
2013-08-13 06:31:00,39.7,29.3,29.50,West,270,0.0,0.0,66,0.00,CLR,OVC,0.00,WeatherDisplay:10.37,2013-08-12 20:31:00,
2013-08-13 06:36:00,39.7,29.3,29.50,WNW,292,0.0,0.0,66,0.00,CLR,OVC,0.00,WeatherDisplay:10.37,2013-08-12 20:36:00,
2013-08-13 06:41:00,39.7,29.3,29.50,SW,225,0.0,0.0,66,0.00,CLR,OVC,0.00,WeatherDisplay:10.37,2013-08-12 20:41:00,
2013-08-13 06:46:00,39.7,29.3,29.50,WNW,292,1.2,0.0,66,0.00,CLR,OVC,0.00,WeatherDisplay:10.37,2013-08-12 20:46:00,
2013-08-13 06:51:00,39.7,29.3,29.50,SW,225,2.3,2.3,66,0.00,CLR,OVC,0.00,WeatherDisplay:10.37,2013-08-12 20:51:00,
2013-08-13 06:56:00,39.7,29.3,29.50,West,270,2.3,0.0,66,0.00,CLR,OVC,0.00,WeatherDisplay:10.37,2013-08-12 20:56:00,
2013-08-13 07:02:00,39.7,29.3,29.47,WSW,248,1.2,1.2,66,0.00,CLR,OVC,0.00,WeatherDisplay:10.37,2013-08-12 21:02:00,
2013-08-13 07:07:00,39.9,29.5,29.47,WNW,292,1.2,0.0,66,0.00,CLR,OVC,0.00,WeatherDisplay:10.37,2013-08-12 21:07:00,
2013-08-13 07:12:00,40.1,30.0,29.47,West,270,0.0,0.0,67,0.00,CLR,OVC,0.00,WeatherDisplay:10.37,2013-08-12 21:12:00,
2013-08-13 07:17:00,40.5,30.4,29.50,WNW,292,2.3,0.0,67,0.00,CLR,OVC,0.00,WeatherDisplay:10.37,2013-08-12 21:17:00,
2013-08-13 07:22:00,40.5,30.4,29.50,NNE,22,0.0,0.0,67,0.00,CLR,OVC,0.00,WeatherDisplay:10.37,2013-08-12 21:22:00,
2013-08-13 07:27:00,40.6,30.9,29.50,NNE,22,1.2,0.0,68,0.00,CLR,OVC,0.00,WeatherDisplay:10.37,2013-08-12 21:27:00,
2013-08-13 07:32:00,41.0,31.2,29.50,NW,315,0.0,0.0,68,0.00,CLR,OVC,0.00,WeatherDisplay:10.37,2013-08-12 21:32:00,
2013-08-13 07:37:00,41.2,31.4,29.50,NNW,338,0.0,0.0,68,0.00,CLR,OVC,0.00,WeatherDisplay:10.37,2013-08-12 21:37:00,
2013-08-13 07:42:00,41.4,31.6,29.50,SSE,158,0.0,0.0,68,0.00,CLR,OVC,0.00,WeatherDisplay:10.37,2013-08-12 21:42:00,
2013-08-13 07:47:00,41.5,31.8,29.53,WNW,292,3.6,3.8,68,0.00,CLR,OVC,0.00,WeatherDisplay:10.37,2013-08-12 21:47:00,
2013-08-13 07:52:00,41.7,32.3,29.53,NNE,22,1.2,0.0,69,0.00,CLR,OVC,0.00,WeatherDisplay:10.37,2013-08-12 21:52:00,
2013-08-13 07:57:00,42.1,32.6,29.53,South,180,2.3,0.0,69,0.00,CLR,OVC,0.00,WeatherDisplay:10.37,2013-08-12 21:57:00,
2013-08-13 08:02:00,42.4,33.0,29.50,SSW,202,3.5,3.5,69,0.00,CLR,OVC,0.00,WeatherDisplay:10.37,2013-08-12 22:02:00,
2013-08-13 08:07:00,42.8,33.7,29.50,NW,315,0.0,0.0,70,0.00,CLR,OVC,0.00,WeatherDisplay:10.37,2013-08-12 22:07:00,
2013-08-13 08:12:00,43.2,34.0,29.50,South,180,0.0,0.0,70,0.00,CLR,OVC,0.00,WeatherDisplay:10.37,2013-08-12 22:12:00,
2013-08-13 08:17:00,43.5,34.4,29.53,ENE,68,3.5,3.5,70,0.00,CLR,OVC,0.00,WeatherDisplay:10.37,2013-08-12 22:17:00,
2013-08-13 08:22:00,44.4,35.6,29.53,NE,45,1.2,1.2,71,0.00,CLR,OVC,0.00,WeatherDisplay:10.37,2013-08-12 22:22:00,
2013-08-13 08:27:00,45.3,36.5,29.53,ENE,68,1.2,0.0,71,0.00,CLR,OVC,0.00,WeatherDisplay:10.37,2013-08-12 22:27:00,
2013-08-13 08:32:00,46.0,37.5,29.53,NNE,22,0.0,0.0,72,0.00,CLR,OVC,0.00,WeatherDisplay:10.37,2013-08-12 22:32:00,
2013-08-13 08:37:00,47.3,38.4,29.53,SE,135,1.2,0.0,71,0.00,CLR,OVC,0.00,WeatherDisplay:10.37,2013-08-12 22:37:00,
2013-08-13 08:42:00,48.7,39.8,29.53,NNW,338,1.2,0.0,71,0.00,CLR,OVC,0.00,WeatherDisplay:10.37,2013-08-12 22:42:00,
2013-08-13 08:47:00,49.8,40.4,29.53,East,90,3.5,3.5,70,0.00,CLR,OVC,0.00,WeatherDisplay:10.37,2013-08-12 22:47:00,
2013-08-13 08:52:00,52.0,41.7,29.53,NE,45,1.2,0.0,68,0.00,CLR,OVC,0.00,WeatherDisplay:10.37,2013-08-12 22:52:00,
2013-08-13 08:57:00,53.4,42.7,29.53,NE,45,2.0,2.0,67,0.00,CLR,OVC,0.00,WeatherDisplay:10.37,2013-08-12 22:57:00,
2013-08-13 09:02:00,54.9,42.5,29.53,ESE,112,2.6,2.6,63,0.00,CLR,OVC,0.00,WeatherDisplay:10.37,2013-08-12 23:02:00,
2013-08-13 09:07:00,56.1,42.4,29.53,NNE,22,2.3,2.3,60,0.00,CLR,OVC,0.00,WeatherDisplay:10.37,2013-08-12 23:07:00,
2013-08-13 09:12:00,57.0,42.4,29.53,NE,45,2.3,2.3,58,0.00,CLR,OVC,0.00,WeatherDisplay:10.37,2013-08-12 23:12:00,
2013-08-13 09:17:00,58.3,41.7,29.50,ENE,68,1.6,1.6,54,0.00,CLR,OVC,0.00,WeatherDisplay:10.37,2013-08-12 23:17:00,
2013-08-13 09:22:00,59.5,41.9,29.50,NNW,338,0.0,0.0,52,0.00,CLR,OVC,0.00,WeatherDisplay:10.37,2013-08-12 23:22:00,
2013-08-13 09:27:00,60.4,41.7,29.50,NE,45,2.4,2.4,50,0.00,CLR,OVC,0.00,WeatherDisplay:10.37,2013-08-12 23:27:00,
2013-08-13 09:32:00,61.5,41.6,29.50,NNE,22,1.2,0.0,48,0.00,CLR,OVC,0.00,WeatherDisplay:10.37,2013-08-12 23:32:00,
2013-08-13 09:37:00,62.2,41.2,29.50,NNE,22,2.3,2.3,46,0.00,CLR,OVC,0.00,WeatherDisplay:10.37,2013-08-12 23:37:00,
2013-08-13 09:42:00,62.6,40.4,29.50,West,270,4.0,4.0,44,0.00,CLR,OVC,0.00,WeatherDisplay:10.37,2013-08-12 23:42:00,
2013-08-13 09:51:00,63.9,41.5,29.50,North,0,2.3,2.3,44,0.00,CLR,OVC,0.00,WeatherDisplay:10.37,2013-08-12 23:51:00,
2013-08-13 09:56:00,64.0,39.8,29.50,North,0,2.3,2.3,41,0.00,CLR,OVC,0.00,WeatherDisplay:10.37,2013-08-12 23:56:00,
2013-08-13 10:01:00,63.9,38.4,29.50,NNW,338,2.3,2.3,39,0.00,CLR,OVC,0.00,WeatherDisplay:10.37,2013-08-13 00:01:00,
2013-08-13 10:06:00,63.9,38.4,29.50,NNE,22,3.5,3.5,39,0.00,CLR,OVC,0.00,WeatherDisplay:10.37,2013-08-13 00:06:00,
2013-08-13 10:11:00,63.7,37.6,29.50,WNW,292,3.1,3.1,38,0.00,CLR,OVC,0.00,WeatherDisplay:10.37,2013-08-13 00:11:00,
2013-08-13 10:16:00,63.5,36.7,29.50,WNW,292,5.8,5.8,37,0.00,CLR,OVC,0.00,WeatherDisplay:10.37,2013-08-13 00:16:00,
2013-08-13 10:21:00,63.1,36.4,29.50,WNW,292,4.6,4.6,37,0.00,CLR,OVC,0.00,WeatherDisplay:10.37,2013-08-13 00:21:00,
2013-08-13 10:26:00,63.0,36.3,29.50,NNE,22,4.6,4.6,37,0.00,CLR,OVC,0.00,WeatherDisplay:10.37,2013-08-13 00:26:00,
2013-08-13 10:31:00,63.3,36.6,29.47,NNW,338,3.5,3.5,37,0.00,CLR,OVC,0.00,WeatherDisplay:10.37,2013-08-13 00:31:00,
2013-08-13 10:36:00,63.5,36.7,29.47,NNW,338,4.6,4.6,37,0.00,CLR,OVC,0.00,WeatherDisplay:10.37,2013-08-13 00:36:00,
2013-08-13 10:41:00,63.9,37.1,29.47,North,0,2.3,2.4,37,0.00,CLR,OVC,0.00,WeatherDisplay:10.37,2013-08-13 00:41:00,
2013-08-13 10:46:00,64.2,37.4,29.47,NNW,338,5.8,5.8,37,0.00,CLR,OVC,0.00,WeatherDisplay:10.37,2013-08-13 00:46:00,
2013-08-13 10:51:00,64.2,37.4,29.47,NW,315,5.8,5.8,37,0.00,CLR,OVC,0.00,WeatherDisplay:10.37,2013-08-13 00:51:00,
2013-08-13 10:56:00,64.4,36.8,29.47,NNE,22,3.5,3.5,36,0.00,CLR,OVC,0.00,WeatherDisplay:10.37,2013-08-13 00:56:00,
2013-08-13 11:01:00,64.2,36.7,29.47,North,0,3.5,3.5,36,0.00,CLR,OVC,0.00,WeatherDisplay:10.37,2013-08-13 01:01:00,
2013-08-13 11:06:00,64.2,36.7,29.47,WNW,292,5.8,5.8,36,0.00,CLR,OVC,0.00,WeatherDisplay:10.37,2013-08-13 01:06:00,
2013-08-13 11:11:00,64.2,36.7,29.47,NNE,22,4.6,4.6,36,0.00,CLR,OVC,0.00,WeatherDisplay:10.37,2013-08-13 01:11:00,
2013-08-13 11:16:00,64.2,36.7,29.47,West,270,3.6,3.6,36,0.00,CLR,OVC,0.00,WeatherDisplay:10.37,2013-08-13 01:16:00,
2013-08-13 11:22:00,64.0,36.5,29.47,NW,315,2.4,2.4,36,0.00,CLR,OVC,0.00,WeatherDisplay:10.37,2013-08-13 01:22:00,
2013-08-13 11:27:00,63.9,36.4,29.47,NNE,22,2.9,2.9,36,0.00,CLR,OVC,0.00,WeatherDisplay:10.37,2013-08-13 01:27:00,
2013-08-13 11:32:00,63.7,36.2,29.47,North,0,2.4,2.4,36,0.00,CLR,OVC,0.00,WeatherDisplay:10.37,2013-08-13 01:32:00,
2013-08-13 11:37:00,63.7,36.2,29.47,NNW,338,2.3,2.6,36,0.00,CLR,OVC,0.00,WeatherDisplay:10.37,2013-08-13 01:37:00,
2013-08-13 11:42:00,63.9,37.1,29.47,North,0,3.8,3.8,37,0.00,CLR,OVC,0.00,WeatherDisplay:10.37,2013-08-13 01:42:00,
2013-08-13 11:47:00,63.9,36.4,29.44,NNW,338,3.5,3.5,36,0.00,CLR,OVC,0.00,WeatherDisplay:10.37,2013-08-13 01:47:00,
2013-08-13 11:52:00,63.9,36.4,29.44,WNW,292,4.6,4.6,36,0.00,CLR,OVC,0.00,WeatherDisplay:10.37,2013-08-13 01:52:00,
2013-08-13 11:57:00,63.9,36.4,29.44,NNW,338,6.9,6.9,36,0.00,CLR,OVC,0.00,WeatherDisplay:10.37,2013-08-13 01:57:00,
2013-08-13 12:02:00,63.9,36.4,29.44,WNW,292,5.8,5.8,36,0.00,CLR,OVC,0.00,WeatherDisplay:10.37,2013-08-13 02:02:00,
2013-08-13 12:07:00,63.9,37.1,29.44,NNE,22,2.3,2.3,37,0.00,CLR,OVC,0.00,WeatherDisplay:10.37,2013-08-13 02:07:00,
2013-08-13 12:12:00,64.0,36.5,29.44,NW,315,3.5,3.5,36,0.00,CLR,OVC,0.00,WeatherDisplay:10.37,2013-08-13 02:12:00,
2013-08-13 12:17:00,64.2,37.4,29.44,NW,315,4.6,4.6,37,0.00,CLR,OVC,0.00,WeatherDisplay:10.37,2013-08-13 02:17:00,
2013-08-13 12:22:00,64.4,36.8,29.44,NNW,338,3.5,3.5,36,0.00,CLR,OVC,0.00,WeatherDisplay:10.37,2013-08-13 02:22:00,
2013-08-13 12:27:00,64.8,37.2,29.44,West,270,3.6,3.6,36,0.00,CLR,OVC,0.00,WeatherDisplay:10.37,2013-08-13 02:27:00,
2013-08-13 12:32:00,65.5,37.8,29.44,WNW,292,5.4,5.4,36,0.00,CLR,OVC,0.00,WeatherDisplay:10.37,2013-08-13 02:32:00,
2013-08-13 12:37:00,65.8,38.1,29.44,West,270,4.6,4.6,36,0.00,CLR,OVC,0.00,WeatherDisplay:10.37,2013-08-13 02:37:00,
2013-08-13 12:42:00,66.4,37.9,29.44,WNW,292,8.1,8.1,35,0.00,CLR,OVC,0.00,WeatherDisplay:10.37,2013-08-13 02:42:00,
2013-08-13 12:47:00,66.6,37.3,29.41,West,270,5.8,5.8,34,0.00,CLR,OVC,0.00,WeatherDisplay:10.37,2013-08-13 02:47:00,
2013-08-13 12:52:00,66.7,36.7,29.41,WNW,292,5.8,5.8,33,0.00,CLR,OVC,0.00,WeatherDisplay:10.37,2013-08-13 02:52:00,
2013-08-13 12:57:00,67.1,37.0,29.41,NNE,22,8.1,8.1,33,0.00,CLR,OVC,0.00,WeatherDisplay:10.37,2013-08-13 02:57:00,
2013-08-13 13:02:00,67.3,37.2,29.41,WNW,292,6.9,6.9,33,0.00,CLR,OVC,0.00,WeatherDisplay:10.37,2013-08-13 03:02:00,
2013-08-13 13:07:00,67.6,37.5,29.41,West,270,13.8,13.8,33,0.00,CLR,OVC,0.00,WeatherDisplay:10.37,2013-08-13 03:07:00,
2013-08-13 13:12:00,67.6,37.5,29.41,West,270,10.4,10.4,33,0.00,CLR,OVC,0.00,WeatherDisplay:10.37,2013-08-13 03:12:00,
2013-08-13 13:17:00,67.8,36.9,29.38,North,0,5.8,5.8,32,0.00,CLR,OVC,0.00,WeatherDisplay:10.37,2013-08-13 03:17:00,
2013-08-13 13:22:00,68.0,37.0,29.38,West,270,6.2,6.7,32,0.00,CLR,OVC,0.00,WeatherDisplay:10.37,2013-08-13 03:22:00,
2013-08-13 13:27:00,68.4,37.3,29.38,North,0,12.7,12.7,32,0.00,CLR,OVC,0.00,WeatherDisplay:10.37,2013-08-13 03:27:00,
2013-08-13 13:32:00,68.7,36.8,29.38,West,270,9.2,9.2,31,0.00,CLR,OVC,0.00,WeatherDisplay:10.37,2013-08-13 03:32:00,
2013-08-13 13:37:00,69.1,37.2,29.38,NW,315,8.1,8.1,31,0.00,CLR,OVC,0.00,WeatherDisplay:10.37,2013-08-13 03:37:00,
2013-08-13 13:42:00,69.4,37.5,29.38,WNW,292,9.2,9.2,31,0.00,CLR,OVC,0.00,WeatherDisplay:10.37,2013-08-13 03:42:00,
2013-08-13 13:47:00,69.8,36.9,29.38,WNW,292,10.0,10.0,30,0.00,CLR,OVC,0.00,WeatherDisplay:10.37,2013-08-13 03:47:00,
2013-08-13 13:52:00,70.0,37.1,29.38,West,270,8.1,8.1,30,0.00,CLR,OVC,0.00,WeatherDisplay:10.37,2013-08-13 03:52:00,
2013-08-13 13:57:00,70.0,37.1,29.38,NNW,338,5.8,5.8,30,0.00,CLR,OVC,0.00,WeatherDisplay:10.37,2013-08-13 03:57:00,
2013-08-13 14:01:00,70.0,37.1,29.38,NNW,338,2.4,2.4,30,0.00,CLR,OVC,0.00,WeatherDisplay:10.37,2013-08-13 04:01:00,
2013-08-13 14:06:00,70.2,37.3,29.38,West,270,7.8,7.8,30,0.00,CLR,OVC,0.00,WeatherDisplay:10.37,2013-08-13 04:06:00,
2013-08-13 14:11:00,69.8,36.1,29.38,NNE,22,3.5,3.5,29,0.00,CLR,OVC,0.00,WeatherDisplay:10.37,2013-08-13 04:11:00,
2013-08-13 14:16:00,70.0,37.1,29.38,NW,315,3.6,3.6,30,0.00,CLR,OVC,0.00,WeatherDisplay:10.37,2013-08-13 04:16:00,
2013-08-13 14:21:00,70.2,36.4,29.38,North,0,2.3,2.3,29,0.00,CLR,OVC,0.00,WeatherDisplay:10.37,2013-08-13 04:21:00,
2013-08-13 14:26:00,70.0,37.1,29.38,NNW,338,6.2,6.2,30,0.00,CLR,OVC,0.00,WeatherDisplay:10.37,2013-08-13 04:26:00,
2013-08-13 14:31:00,69.8,36.1,29.35,NW,315,5.8,5.8,29,0.00,CLR,OVC,0.00,WeatherDisplay:10.37,2013-08-13 04:31:00,
2013-08-13 14:36:00,69.4,35.8,29.35,NNW,338,5.8,5.8,29,0.00,CLR,OVC,0.00,WeatherDisplay:10.37,2013-08-13 04:36:00,
2013-08-13 14:41:00,69.3,35.6,29.35,NNE,22,5.8,5.8,29,0.00,CLR,OVC,0.00,WeatherDisplay:10.37,2013-08-13 04:41:00,
2013-08-13 14:46:00,69.1,35.5,29.35,NNW,338,4.6,4.6,29,0.00,CLR,OVC,0.00,WeatherDisplay:10.37,2013-08-13 04:46:00,
2013-08-13 14:51:00,69.1,35.5,29.35,WNW,292,2.3,2.3,29,0.00,CLR,OVC,0.00,WeatherDisplay:10.37,2013-08-13 04:51:00,
2013-08-13 14:56:00,68.9,35.3,29.35,NNW,338,2.4,2.4,29,0.00,CLR,OVC,0.00,WeatherDisplay:10.37,2013-08-13 04:56:00,
2013-08-13 15:01:00,68.7,35.2,29.38,NNW,338,5.8,5.8,29,0.00,CLR,OVC,0.00,WeatherDisplay:10.37,2013-08-13 05:01:00,
2013-08-13 15:06:00,68.5,35.0,29.38,NNW,338,2.3,2.3,29,0.00,CLR,OVC,0.00,WeatherDisplay:10.37,2013-08-13 05:06:00,
2013-08-13 15:11:00,68.2,33.8,29.38,SW,225,8.1,8.1,28,0.00,CLR,OVC,0.00,WeatherDisplay:10.37,2013-08-13 05:11:00,
2013-08-13 15:16:00,68.2,34.7,29.38,WNW,292,7.1,7.1,29,0.00,CLR,OVC,0.00,WeatherDisplay:10.37,2013-08-13 05:16:00,
2013-08-13 15:21:00,68.0,34.5,29.38,NNE,22,6.9,6.9,29,0.00,CLR,OVC,0.00,WeatherDisplay:10.37,2013-08-13 05:21:00,
2013-08-13 15:26:00,67.8,34.4,29.38,WNW,292,4.6,4.6,29,0.00,CLR,OVC,0.00,WeatherDisplay:10.37,2013-08-13 05:26:00,
2013-08-13 15:31:00,67.8,34.4,29.38,West,270,6.9,6.9,29,0.00,CLR,OVC,0.00,WeatherDisplay:10.37,2013-08-13 05:31:00,
2013-08-13 15:36:00,67.6,34.2,29.38,West,270,5.8,5.8,29,0.00,CLR,OVC,0.00,WeatherDisplay:10.37,2013-08-13 05:36:00,
2013-08-13 15:41:00,67.5,34.1,29.38,NW,315,2.3,2.3,29,0.00,CLR,OVC,0.00,WeatherDisplay:10.37,2013-08-13 05:41:00,
2013-08-13 15:46:00,67.5,34.1,29.38,NNW,338,3.5,4.0,29,0.00,CLR,OVC,0.00,WeatherDisplay:10.37,2013-08-13 05:46:00,
2013-08-13 15:51:00,67.3,34.8,29.38,West,270,6.2,6.2,30,0.00,CLR,OVC,0.00,WeatherDisplay:10.37,2013-08-13 05:51:00,
2013-08-13 15:56:00,67.1,34.6,29.38,NW,315,4.6,4.6,30,0.00,CLR,OVC,0.00,WeatherDisplay:10.37,2013-08-13 05:56:00,
2013-08-13 16:01:00,66.9,34.5,29.38,West,270,5.8,5.8,30,0.00,CLR,OVC,0.00,WeatherDisplay:10.37,2013-08-13 06:01:00,
2013-08-13 16:06:00,66.9,34.5,29.38,West,270,6.9,6.9,30,0.00,CLR,OVC,0.00,WeatherDisplay:10.37,2013-08-13 06:06:00,
2013-08-13 16:11:00,66.7,34.3,29.38,NW,315,5.8,5.8,30,0.00,CLR,OVC,0.00,WeatherDisplay:10.37,2013-08-13 06:11:00,
2013-08-13 16:16:00,66.7,34.3,29.41,North,0,5.8,5.8,30,0.00,CLR,OVC,0.00,WeatherDisplay:10.37,2013-08-13 06:16:00,
2013-08-13 16:21:00,66.6,34.1,29.41,WNW,292,2.6,2.6,30,0.00,CLR,OVC,0.00,WeatherDisplay:10.37,2013-08-13 06:21:00,
2013-08-13 16:26:00,66.4,34.8,29.41,NW,315,4.6,4.6,31,0.00,CLR,OVC,0.00,WeatherDisplay:10.37,2013-08-13 06:26:00,
2013-08-13 16:31:00,66.2,34.7,29.41,WNW,292,3.5,3.5,31,0.00,CLR,OVC,0.00,WeatherDisplay:10.37,2013-08-13 06:31:00,
2013-08-13 16:36:00,66.0,35.3,29.41,West,270,3.5,3.5,32,0.00,CLR,OVC,0.00,WeatherDisplay:10.37,2013-08-13 06:36:00,
2013-08-13 16:41:00,65.8,34.3,29.41,WNW,292,4.6,4.6,31,0.00,CLR,OVC,0.00,WeatherDisplay:10.37,2013-08-13 06:41:00,
2013-08-13 16:46:00,65.5,34.8,29.41,NNW,338,4.6,4.6,32,0.00,CLR,OVC,0.00,WeatherDisplay:10.37,2013-08-13 06:46:00,
2013-08-13 16:51:00,65.3,34.7,29.41,WNW,292,4.6,4.6,32,0.00,CLR,OVC,0.00,WeatherDisplay:10.37,2013-08-13 06:51:00,
2013-08-13 16:56:00,64.9,34.3,29.41,WNW,292,3.5,3.5,32,0.00,CLR,OVC,0.00,WeatherDisplay:10.37,2013-08-13 06:56:00,
2013-08-13 17:01:00,64.6,34.0,29.41,NNW,338,3.5,3.5,32,0.00,CLR,OVC,0.00,WeatherDisplay:10.37,2013-08-13 07:01:00,
2013-08-13 17:06:00,64.0,34.3,29.41,NNW,338,0.0,0.0,33,0.00,CLR,OVC,0.00,WeatherDisplay:10.37,2013-08-13 07:06:00,
2013-08-13 17:11:00,63.5,33.9,29.41,SSW,202,0.0,0.0,33,0.00,CLR,OVC,0.00,WeatherDisplay:10.37,2013-08-13 07:11:00,
2013-08-13 17:16:00,62.6,33.1,29.44,WSW,248,0.0,0.0,33,0.00,CLR,OVC,0.00,WeatherDisplay:10.37,2013-08-13 07:16:00,
2013-08-13 17:21:00,61.9,33.2,29.44,South,180,0.0,0.0,34,0.00,CLR,OVC,0.00,WeatherDisplay:10.37,2013-08-13 07:21:00,
2013-08-13 17:26:00,61.5,32.9,29.44,South,180,2.3,2.3,34,0.00,CLR,OVC,0.00,WeatherDisplay:10.37,2013-08-13 07:26:00,
2013-08-13 17:31:00,61.0,32.4,29.44,WNW,292,0.0,0.0,34,0.00,CLR,OVC,0.00,WeatherDisplay:10.37,2013-08-13 07:31:00,
2013-08-13 17:36:00,60.6,32.8,29.44,West,270,1.2,0.0,35,0.00,CLR,OVC,0.00,WeatherDisplay:10.37,2013-08-13 07:36:00,
2013-08-13 17:41:00,60.1,32.3,29.44,ESE,112,2.4,0.0,35,0.00,CLR,OVC,0.00,WeatherDisplay:10.37,2013-08-13 07:41:00,
2013-08-13 17:46:00,59.7,32.0,29.44,NNE,22,0.0,0.0,35,0.00,CLR,OVC,0.00,WeatherDisplay:10.37,2013-08-13 07:46:00,
2013-08-13 17:51:00,59.2,32.2,29.44,SW,225,1.2,0.0,36,0.00,CLR,OVC,0.00,WeatherDisplay:10.37,2013-08-13 07:51:00,
2013-08-13 17:56:00,58.5,32.9,29.44,ENE,68,2.3,2.3,38,0.00,CLR,OVC,0.00,WeatherDisplay:10.37,2013-08-13 07:56:00,
2013-08-13 18:01:00,58.1,32.6,29.44,West,270,0.0,0.0,38,0.00,CLR,OVC,0.00,WeatherDisplay:10.37,2013-08-13 08:01:00,
2013-08-13 18:07:00,57.7,32.3,29.44,West,270,2.9,2.9,38,0.00,CLR,OVC,0.00,WeatherDisplay:10.37,2013-08-13 08:07:00,
2013-08-13 18:12:00,57.6,32.1,29.44,South,180,1.2,1.2,38,0.00,CLR,OVC,0.00,WeatherDisplay:10.37,2013-08-13 08:12:00,
2013-08-13 18:17:00,57.2,32.4,29.41,NW,315,2.4,2.4,39,0.00,CLR,OVC,0.00,WeatherDisplay:10.37,2013-08-13 08:17:00,
2013-08-13 18:22:00,56.8,32.8,29.41,West,270,1.2,0.0,40,0.00,CLR,OVC,0.00,WeatherDisplay:10.37,2013-08-13 08:22:00,
2013-08-13 18:27:00,56.7,33.2,29.41,WSW,248,1.6,1.6,41,0.00,CLR,OVC,0.00,WeatherDisplay:10.37,2013-08-13 08:27:00,
2013-08-13 18:32:00,56.3,33.5,29.44,South,180,0.0,0.0,42,0.00,CLR,OVC,0.00,WeatherDisplay:10.37,2013-08-13 08:32:00,
2013-08-13 18:37:00,55.6,33.4,29.44,SW,225,2.3,2.3,43,0.00,CLR,OVC,0.00,WeatherDisplay:10.37,2013-08-13 08:37:00,
2013-08-13 18:42:00,55.6,33.4,29.44,NNW,338,0.0,0.0,43,0.00,CLR,OVC,0.00,WeatherDisplay:10.37,2013-08-13 08:42:00,
2013-08-13 18:47:00,55.4,33.8,29.47,ESE,112,1.6,0.0,44,0.00,CLR,OVC,0.00,WeatherDisplay:10.37,2013-08-13 08:47:00,
2013-08-13 18:52:00,54.9,33.9,29.47,SSE,158,2.9,2.9,45,0.00,CLR,OVC,0.00,WeatherDisplay:10.37,2013-08-13 08:52:00,
2013-08-13 18:57:00,54.5,33.6,29.47,SSW,202,0.0,0.0,45,0.00,CLR,OVC,0.00,WeatherDisplay:10.37,2013-08-13 08:57:00,
2013-08-13 19:02:00,54.3,33.4,29.47,WNW,292,0.0,0.0,45,0.00,CLR,OVC,0.00,WeatherDisplay:10.37,2013-08-13 09:02:00,
2013-08-13 19:07:00,54.1,33.8,29.47,NW,315,0.0,0.0,46,0.00,CLR,OVC,0.00,WeatherDisplay:10.37,2013-08-13 09:07:00,
2013-08-13 19:12:00,53.8,33.5,29.47,SW,225,0.0,0.0,46,0.00,CLR,OVC,0.00,WeatherDisplay:10.37,2013-08-13 09:12:00,
2013-08-13 19:17:00,53.4,33.1,29.47,ESE,112,0.0,0.0,46,0.00,CLR,OVC,0.00,WeatherDisplay:10.37,2013-08-13 09:17:00,
2013-08-13 19:22:00,53.2,33.5,29.47,East,90,0.0,0.0,47,0.00,CLR,OVC,0.00,WeatherDisplay:10.37,2013-08-13 09:22:00,
2013-08-13 19:27:00,53.1,33.3,29.47,East,90,0.0,0.0,47,0.00,CLR,OVC,0.00,WeatherDisplay:10.37,2013-08-13 09:27:00,
2013-08-13 19:32:00,52.9,33.7,29.47,SW,225,1.2,0.0,48,0.00,CLR,OVC,0.00,WeatherDisplay:10.37,2013-08-13 09:32:00,
2013-08-13 19:37:00,52.5,33.4,29.47,NW,315,2.3,2.3,48,0.00,CLR,OVC,0.00,WeatherDisplay:10.37,2013-08-13 09:37:00,
2013-08-13 19:42:00,52.3,33.2,29.47,West,270,2.3,2.3,48,0.00,CLR,OVC,0.00,WeatherDisplay:10.37,2013-08-13 09:42:00,
2013-08-13 19:47:00,52.2,33.0,29.47,WNW,292,1.2,0.0,48,0.00,CLR,OVC,0.00,WeatherDisplay:10.37,2013-08-13 09:47:00,
2013-08-13 19:52:00,52.0,32.9,29.47,SSE,158,0.0,0.0,48,0.00,CLR,OVC,0.00,WeatherDisplay:10.37,2013-08-13 09:52:00,
2013-08-13 19:57:00,51.8,33.2,29.47,SSW,202,0.0,0.0,49,0.00,CLR,OVC,0.00,WeatherDisplay:10.37,2013-08-13 09:57:00,
2013-08-13 20:02:00,51.6,33.1,29.50,WNW,292,2.3,2.3,49,0.00,CLR,OVC,0.00,WeatherDisplay:10.37,2013-08-13 10:02:00,
2013-08-13 20:07:00,51.4,33.4,29.50,NNE,22,0.0,0.0,50,0.00,CLR,OVC,0.00,WeatherDisplay:10.37,2013-08-13 10:07:00,
2013-08-13 20:12:00,51.3,33.2,29.50,SE,135,0.0,0.0,50,0.00,CLR,OVC,0.00,WeatherDisplay:10.37,2013-08-13 10:12:00,
2013-08-13 20:17:00,51.1,33.6,29.50,West,270,0.0,0.0,51,0.00,CLR,OVC,0.00,WeatherDisplay:10.37,2013-08-13 10:17:00,
2013-08-13 20:22:00,50.7,32.7,29.50,WSW,248,0.0,0.0,50,0.00,CLR,OVC,0.00,WeatherDisplay:10.37,2013-08-13 10:22:00,
2013-08-13 20:27:00,50.5,32.6,29.50,West,270,0.0,0.0,50,0.00,CLR,OVC,0.00,WeatherDisplay:10.37,2013-08-13 10:27:00,
2013-08-13 20:32:00,50.5,32.6,29.50,SSW,202,1.2,0.0,50,0.00,CLR,OVC,0.00,WeatherDisplay:10.37,2013-08-13 10:32:00,
2013-08-13 20:37:00,50.4,32.4,29.50,WNW,292,0.0,0.0,50,0.00,CLR,OVC,0.00,WeatherDisplay:10.37,2013-08-13 10:37:00,
2013-08-13 20:42:00,50.2,32.7,29.50,WNW,292,1.2,0.0,51,0.00,CLR,OVC,0.00,WeatherDisplay:10.37,2013-08-13 10:42:00,
2013-08-13 20:47:00,50.0,33.1,29.50,West,270,0.0,0.9,52,0.00,CLR,OVC,0.00,WeatherDisplay:10.37,2013-08-13 10:47:00,
2013-08-13 20:52:00,50.0,33.1,29.50,West,270,0.0,0.0,52,0.00,CLR,OVC,0.00,WeatherDisplay:10.37,2013-08-13 10:52:00,
2013-08-13 20:57:00,49.8,32.9,29.50,West,270,0.0,0.0,52,0.00,CLR,OVC,0.00,WeatherDisplay:10.37,2013-08-13 10:57:00,
2013-08-13 21:02:00,49.6,33.2,29.47,WNW,292,2.3,2.3,53,0.00,CLR,OVC,0.00,WeatherDisplay:10.37,2013-08-13 11:02:00,
2013-08-13 21:07:00,49.6,33.2,29.47,SW,225,2.3,2.3,53,0.00,CLR,OVC,0.00,WeatherDisplay:10.37,2013-08-13 11:07:00,
2013-08-13 21:12:00,49.5,33.0,29.47,WNW,292,0.0,0.0,53,0.00,CLR,OVC,0.00,WeatherDisplay:10.37,2013-08-13 11:12:00,
2013-08-13 21:17:00,49.5,33.0,29.47,WSW,248,0.0,0.0,53,0.00,CLR,OVC,0.00,WeatherDisplay:10.37,2013-08-13 11:17:00,
2013-08-13 21:22:00,49.3,32.9,29.47,West,270,0.0,0.0,53,0.00,CLR,OVC,0.00,WeatherDisplay:10.37,2013-08-13 11:22:00,
2013-08-13 21:27:00,49.3,33.3,29.47,WNW,292,0.0,0.0,54,0.00,CLR,OVC,0.00,WeatherDisplay:10.37,2013-08-13 11:27:00,
2013-08-13 21:32:00,49.1,33.2,29.50,SW,225,0.0,0.0,54,0.00,CLR,OVC,0.00,WeatherDisplay:10.37,2013-08-13 11:32:00,
2013-08-13 21:37:00,48.9,33.0,29.50,West,270,0.0,0.0,54,0.00,CLR,OVC,0.00,WeatherDisplay:10.37,2013-08-13 11:37:00,
2013-08-13 21:42:00,48.7,32.8,29.50,South,180,0.0,0.0,54,0.00,CLR,OVC,0.00,WeatherDisplay:10.37,2013-08-13 11:42:00,
2013-08-13 21:47:00,48.7,32.8,29.50,WNW,292,0.0,0.0,54,0.00,CLR,OVC,0.00,WeatherDisplay:10.37,2013-08-13 11:47:00,
2013-08-13 21:52:00,48.6,32.7,29.50,SW,225,0.0,0.0,54,0.00,CLR,OVC,0.00,WeatherDisplay:10.37,2013-08-13 11:52:00,
2013-08-13 21:57:00,48.6,33.1,29.50,NW,315,0.0,0.0,55,0.00,CLR,OVC,0.00,WeatherDisplay:10.37,2013-08-13 11:57:00,
2013-08-13 22:02:00,48.4,32.9,29.50,WSW,248,0.0,0.0,55,0.00,CLR,OVC,0.00,WeatherDisplay:10.37,2013-08-13 12:02:00,
2013-08-13 22:07:00,48.4,32.9,29.50,WNW,292,2.4,2.4,55,0.00,CLR,OVC,0.00,WeatherDisplay:10.37,2013-08-13 12:07:00,
2013-08-13 22:12:00,48.2,33.2,29.50,SSE,158,1.2,0.0,56,0.00,CLR,OVC,0.00,WeatherDisplay:10.37,2013-08-13 12:12:00,
2013-08-13 22:17:00,48.2,33.2,29.50,SW,225,0.0,0.0,56,0.00,CLR,OVC,0.00,WeatherDisplay:10.37,2013-08-13 12:17:00,
2013-08-13 22:22:00,48.0,33.1,29.50,WNW,292,0.0,0.0,56,0.00,CLR,OVC,0.00,WeatherDisplay:10.37,2013-08-13 12:22:00,
2013-08-13 22:27:00,48.0,33.1,29.50,WSW,248,1.2,0.0,56,0.00,CLR,OVC,0.00,WeatherDisplay:10.37,2013-08-13 12:27:00,
2013-08-13 22:32:00,48.0,33.5,29.50,West,270,0.0,0.0,57,0.00,CLR,OVC,0.00,WeatherDisplay:10.37,2013-08-13 12:32:00,
2013-08-13 22:37:00,47.8,33.3,29.50,SW,225,1.2,0.0,57,0.00,CLR,OVC,0.00,WeatherDisplay:10.37,2013-08-13 12:37:00,
2013-08-13 22:42:00,47.8,33.3,29.50,WNW,292,1.2,1.2,57,0.00,CLR,OVC,0.00,WeatherDisplay:10.37,2013-08-13 12:42:00,
2013-08-13 22:47:00,47.8,33.3,29.50,SSW,202,0.0,0.0,57,0.00,CLR,OVC,0.00,WeatherDisplay:10.37,2013-08-13 12:47:00,
2013-08-13 22:52:00,47.8,33.8,29.50,ENE,68,0.0,0.0,58,0.00,CLR,OVC,0.00,WeatherDisplay:10.37,2013-08-13 12:52:00,
2013-08-13 22:57:00,47.7,34.0,29.50,ENE,68,0.0,0.0,59,0.00,CLR,OVC,0.00,WeatherDisplay:10.37,2013-08-13 12:57:00,
2013-08-13 23:02:00,47.5,33.4,29.50,SSE,158,0.0,0.0,58,0.00,CLR,OVC,0.00,WeatherDisplay:10.37,2013-08-13 13:02:00,
2013-08-13 23:07:00,47.3,33.3,29.50,West,270,0.0,0.0,58,0.00,CLR,OVC,0.00,WeatherDisplay:10.37,2013-08-13 13:07:00,
2013-08-13 23:12:00,47.3,33.7,29.50,West,270,0.0,0.0,59,0.00,CLR,OVC,0.00,WeatherDisplay:10.37,2013-08-13 13:12:00,
2013-08-13 23:17:00,47.1,33.5,29.50,WNW,292,0.0,0.0,59,0.00,CLR,OVC,0.00,WeatherDisplay:10.37,2013-08-13 13:17:00,
2013-08-13 23:22:00,47.1,33.5,29.50,SW,225,0.0,0.0,59,0.00,CLR,OVC,0.00,WeatherDisplay:10.37,2013-08-13 13:22:00,
2013-08-13 23:27:00,47.1,33.9,29.50,SE,135,0.0,0.0,60,0.00,CLR,OVC,0.00,WeatherDisplay:10.37,2013-08-13 13:27:00,
2013-08-13 23:32:00,46.9,33.3,29.50,North,0,2.3,2.3,59,0.00,CLR,OVC,0.00,WeatherDisplay:10.37,2013-08-13 13:32:00,
2013-08-13 23:37:00,46.8,33.6,29.50,WNW,292,1.2,0.0,60,0.00,CLR,OVC,0.00,WeatherDisplay:10.37,2013-08-13 13:37:00,
2013-08-13 23:42:00,46.8,33.6,29.50,WSW,248,0.0,0.0,60,0.00,CLR,OVC,0.00,WeatherDisplay:10.37,2013-08-13 13:42:00,
2013-08-13 23:47:00,46.8,33.6,29.50,WNW,292,0.0,0.0,60,0.00,CLR,OVC,0.00,WeatherDisplay:10.37,2013-08-13 13:47:00,
2013-08-13 23:52:00,46.8,33.6,29.50,West,270,0.9,0.9,60,0.00,CLR,OVC,0.00,WeatherDisplay:10.37,2013-08-13 13:52:00,
2013-08-13 23:57:00,46.6,33.4,29.50,West,270,2.9,2.9,60,0.00,CLR,OVC,0.00,WeatherDisplay:10.37,2013-08-13 13:57:00,